Siga o Apolo11 no Facebook   Siga o Apolo11 no Twiiter
Ciência, Espaço e Tecnologia




Elementos Keplerianos formato Two Line

Para que um programa de rastreio possa saber a localização exata de qualquer satélite no espaço e assim poder rastreá-lo corretamente, é necessário que ele seja carregado com algumas informações.

Estas informações são chamadas de Elementos Orbitais ou Elementos Keplerianos e consistem em 2 linhas com dezenas de números. Esses números nada mais são que os parâmetros orbitais do satélite, tais como altitude, atitude, excentricidade da órbita, número de órbitas por dia, etc.

Com base nestas informações o programa é capaz de determinar com bastante exatidão a posição de qualquer satélite no espaço e nos informar em qual horário este estará dentro do alcance de nossa estação. Para que isso seja feito com precisão é necessário que os dados estejam sempre bem atualizadas.

Devido aos parâmetros orbitais serem descritos em 2 linhas, estes formato é também conhecido internacionalmente por 2line (leia-se Two Line”).

Para atualizar seu programa de rastreio basta copiar os dados disponibilizados e fornece-los ao programa. Nossos elementos orbitais são atualizados diariamente.

NOAATodos os satélites ambientais da série NOAA
30 DiasSatélites lançados nos últimos 30 dias
ISSSatélites e foguetes relacionados à Estação Espacial Internacional
HAMSatélites construídos por radiomadores
CUBESatélites tipo cubo, com 10 centímetros de lado
METEOSatélites voltados à previsão do tempo
EDUSatélites construídos e operados por universidades
VIS100 satélites mais brilhantes que podem ser vistos a olho nú



Satélites de Radioamadores
OSCAR 7 (AO-7)          
1 07530U 74089B   23080.81839418 -.00000047  00000+0 -36650-5 0  9995
2 07530 101.9422  66.9245 0011943 229.9997 248.4024 12.53662438212226
PHASE 3B (AO-10)        
1 14129U 83058B   23080.99680269 -.00000217  00000+0  00000+0 0  9992
2 14129  27.0108  50.7719 6037409 157.5875 247.5060  2.05868287271137
UOSAT 2 (UO-11)         
1 14781U 84021B   23080.91825452  .00002448  00000+0  29617-3 0  9990
2 14781  97.6498  61.2894 0009639 122.4767 237.7382 14.84521377 81195
LUSAT (LO-19)           
1 20442U 90005G   23080.83647820  .00000338  00000+0  13950-3 0  9991
2 20442  98.8356  55.5284 0012844  76.1132 284.1480 14.33202929732836
EYESAT A (AO-27)        
1 22825U 93061C   23081.11345225  .00000193  00000+0  92253-4 0  9992
2 22825  98.8533 122.5529 0007765 328.4772  31.5944 14.30268428538113
ITAMSAT (IO-26)         
1 22826U 93061D   23080.85894953  .00000223  00000+0  10299-3 0  9993
2 22826  98.8480 122.1595 0008102 313.7155  46.3355 14.30624611538077
RADIO ROSTO (RS-15)     
1 23439U 94085A   23080.90821021 -.00000039  00000+0  10000-3 0  9999
2 23439  64.8144  56.8516 0165151 225.4540 133.2795 11.27574073162772
JAS-2 (FO-29)           
1 24278U 96046B   23081.23414710 -.00000005  00000+0  34044-4 0  9998
2 24278  98.5226  71.6634 0349183 282.5145  73.7149 13.53138982313426
TECHSAT 1B (GO-32)      
1 25397U 98043D   23080.45190442  .00000186  00000+0  10098-3 0  9997
2 25397  98.8588  37.2015 0002104  55.7080 304.4297 14.23842357282846
ISS (ZARYA)             
1 25544U 98067A   23081.36343941  .00015575  00000+0  28639-3 0  9990
2 25544  51.6416  38.6887 0006071 118.7594  17.1799 15.49378099388327
PCSAT (NO-44)           
1 26931U 01043C   23080.68966004  .00000366  00000+0  17087-3 0  9991
2 26931  67.0508  62.7390 0006912 283.1725  76.8605 14.30859527121068
SAUDISAT 1C (SO-50)     
1 27607U 02058C   23080.69614193  .00002525  00000+0  36078-3 0  9999
2 27607  64.5559 173.1029 0075956 242.0139 117.3264 14.76977018 89308
CUTE-1 (CO-55)          
1 27844U 03031E   23080.76360237  .00000604  00000+0  28897-3 0  9995
2 27844  98.6811  89.2948 0010267  25.6513 334.5173 14.22687856 23301
CUBESAT XI-IV (CO-57)   
1 27848U 03031J   23081.23739400  .00000542  00000+0  26375-3 0  9994
2 27848  98.6849  90.2090 0010385  38.4166 321.7750 14.22211539 23190
MOZHAYETS 4 (RS-22)     
1 27939U 03042A   23081.08947080  .00001995  00000+0  35573-3 0  9998
2 27939  98.2262 227.4808 0013238  55.6048 304.6374 14.68077837 41763
CUBESAT XI-V            
1 28895U 05043F   23080.88138228  .00002688  00000+0  50676-3 0  9997
2 28895  98.1383 213.7038 0015908 351.2143   8.8779 14.65255801928254
CUTE-1.7+APD II (CO-65) 
1 32785U 08021C   23080.80631017  .00005959  00000+0  60047-3 0  9992
2 32785  97.6972  48.7295 0013749  41.1232 319.1020 14.91435961807799
DELFI-C3 (DO-64)        
1 32789U 08021G   23080.77246477  .00047309  00000+0  17806-2 0  9993
2 32789  97.3140 103.4124 0010044  84.4942 275.7442 15.26916830814005
SEEDS II (CO-66)        
1 32791U 08021J   23080.86059713  .00009683  00000+0  87956-3 0  9998
2 32791  97.6476  54.0486 0011872 355.3282   4.7826 14.95412767808680
YUBILEINY (RS-30)       
1 32953U 08025A   23081.12318549  .00000024  00000+0  10000-3 0  9993
2 32953  82.5088  11.2431 0020322  16.9405 343.2348 12.43120812672838
KKS-1 (KISEKI)          
1 33499U 09002H   23080.93242029  .00002093  00000+0  30608-3 0  9996
2 33499  98.1844 332.1011 0009592 139.8731 220.3188 14.76755627761189
SWISSCUBE               
1 35932U 09051B   23081.21711306  .00001690  00000+0  38276-3 0  9996
2 35932  98.5347 309.4660 0006347 276.5186  83.5289 14.57473650716587
BEESAT-1                
1 35933U 09051C   23080.89966250  .00001380  00000+0  31495-3 0  9992
2 35933  98.5278 310.5525 0004663 294.0984  65.9725 14.57412670716577
ITUPSAT1                
1 35935U 09051E   23081.15821240  .00001336  00000+0  31134-3 0  9994
2 35935  98.5376 310.7931 0006975 296.1025  63.9454 14.56481157716323
XIWANG-1 (HOPE-1)       
1 36122U 09072B   23080.91070245 -.00000033  00000+0  26263-4 0  9992
2 36122 100.2280  47.5784 0008133  65.3477 294.8482 13.16379922637311
JUGNU                   
1 37839U 11058B   23080.89480644  .00000597  00000+0  17511-3 0  9999
2 37839  19.9614 292.5391 0018800 336.2650  51.2850 14.12910272591426
SRMSAT                  
1 37841U 11058D   23080.17995836  .00000530  00000+0  14588-3 0  9995
2 37841  19.9733  22.1049 0012030 144.4086 340.5551 14.10856588590360
M-CUBED & EXP-1 PRIME   
1 37855U 11061F   23080.89511410  .00035341  00000+0  12430-2 0  9996
2 37855 101.7054 354.0529 0129383 306.9710  51.9721 15.21616018623263
STRAND-1                
1 39090U 13009E   23080.80939367  .00000571  00000+0  21320-3 0  9995
2 39090  98.3928 276.5494 0009354 158.5918 201.5661 14.35509638527185
SOMP                    
1 39134U 13015E   23080.91966939  .00082631  00000+0  16442-2 0  9993
2 39134  64.8542 223.1935 0019973 253.1764 106.7186 15.46244725549426
BEESAT-3                
1 39135U 13015F   23080.86458099  .00043314  00000+0  12334-2 0  9992
2 39135  64.8601 268.5273 0026304 242.9842 116.8608 15.35519568548495
BEESAT-2                
1 39136U 13015G   23080.95740153  .00035991  00000+0  10964-2 0  9997
2 39136  64.8688 278.5375 0025691 279.6577  80.1655 15.33479658548752
ZACUBE-1 (TSHEPISOSAT)  
1 39417U 13066B   23080.81585959  .00004493  00000+0  52960-3 0  9997
2 39417  97.6759  45.6427 0054472 213.1216 146.6585 14.84178708504232
GOMX-1                  
1 39430U 13066Q   23081.24492440  .00003346  00000+0  59134-3 0  9998
2 39430  97.7897 337.4325 0145194 248.2720 110.2948 14.61370448496848
CUBEBUG-2 (LO-74)       
1 39440U 13066AA  23080.83362764  .00005697  00000+0  74714-3 0  9990
2 39440  97.7642  32.5256 0075020 312.4021  47.0858 14.78720881501247
FUNCUBE-1 (AO-73)       
1 39444U 13066AE  23080.87347386  .00005761  00000+0  65357-3 0  9996
2 39444  97.6625  48.1789 0053265 198.7052 161.2208 14.85674058502679
UWE-3                   
1 39446U 13066AG  23080.84421446  .00005107  00000+0  63756-3 0  9990
2 39446  97.7250  38.7633 0064482 264.5029  94.8826 14.81335862501497
SPROUT                  
1 39770U 14029E   23081.26310655  .00025953  00000+0  21918-2 0  9990
2 39770  97.9581 206.3224 0009164 242.7770 117.2501 14.98048643479122
UNISAT-6                
1 40012U 14033C   23081.04452146  .00003375  00000+0  48293-3 0  9994
2 40012  97.6670 259.4422 0055606 340.2819  19.6241 14.76194002470919
DUCHIFAT-1              
1 40021U 14033M   23080.87390734  .00010680  00000+0  94787-3 0  9994
2 40021  98.0492  42.1751 0010516 195.1697 164.9210 14.96321400476125
QB50P1                  
1 40025U 14033R   23080.83355861  .00007160  00000+0  69617-3 0  9999
2 40025  97.9892  26.1424 0010137 216.5132 143.5396 14.92848044475100
NUDT-PHONESAT           
1 40900U 15049B   23081.11464433  .00995747  44669-3  27147-2 0  9998
2 40900  97.3554 110.4117 0003699 188.2986 246.1995 15.94195896417580
ZDPS 2A                 
1 40901U 15049C   23080.92880320  .00042351  00000+0  12380-2 0  9998
2 40901  97.4518  94.8364 0011688  88.2546 272.0036 15.35093413415825
ZDPS 2B                 
1 40902U 15049D   23081.22083513  .00043152  00000+0  12285-2 0  9996
2 40902  97.4634  93.3179 0011953  82.9017 341.6013 15.35915663415853
XW-2A                   
1 40903U 15049E   23081.18401326  .00246330  00000+0  93623-3 0  9997
2 40903  97.1268 148.2662 0006666 170.8536 266.1360 15.86951628422647
KAITUO 1A               
1 40904U 15049F   23081.23968523  .00019166  00000+0  80466-3 0  9997
2 40904  97.5005  86.9233 0014114 116.5452  12.1245 15.23412985415051
2015-049G               
1 40905U 15049G   23081.22508191  .00009003  00000+0  42570-3 0  9991
2 40905  97.5246  83.9865 0015723 123.8346 292.8029 15.19510535414744
XW-2C                   
1 40906U 15049H   23081.24491987  .00015521  00000+0  64182-3 0  9993
2 40906  97.4969  88.2253 0014695 105.3827 311.3698 15.23962807415143
XW-2D                   
1 40907U 15049J   23081.23103100  .00018338  00000+0  72565-3 0  9993
2 40907  97.4962  88.5376 0013931 100.0473 319.9155 15.25415696415218
LILACSAT-2              
1 40908U 15049K   23081.22372891  .00007953  00000+0  38796-3 0  9997
2 40908  97.5260  84.5950 0015992 128.4004 291.0750 15.18460609414595
